• In Germany
  • List of Countries
  • For 7 days
  • Water Temperature
  • Satellite Maps
  • Weather Map
  • Weather Widgets
  • user-avatar
    Login

    Hourly Weather Kamienna Góra

    Today, 21 October, Saturday

    Time Temperature Precipitation Wind Pressure Humidity
    00:00 +10°C° 0.1 mm 2 mps 722 mmHg 75%
    01:00 +9°C° 0 mm 2 mps 721 mmHg 83%
    02:00 +9°C° 0 mm 2 mps 721 mmHg 84%
    03:00 +8°C° 0 mm 2 mps 721 mmHg 85%
    04:00 +8°C° 0 mm 2 mps 721 mmHg 87%
    05:00 +8°C° 0 mm 2 mps 721 mmHg 88%
    06:00 +8°C° 0 mm 2 mps 722 mmHg 90%
    07:00 +7°C° 0 mm 2 mps 722 mmHg 89%
    08:00 +9°C° 0 mm 2 mps 722 mmHg 83%
    09:00 +10°C° 0 mm 2 mps 722 mmHg 77%
    10:00 +12°C° 0 mm 3 mps 722 mmHg 71%
    11:00 +12°C° 0 mm 3 mps 722 mmHg 68%
    12:00 +13°C° 0 mm 3 mps 722 mmHg 65%
    13:00 +13°C° 0 mm 3 mps 722 mmHg 61%
    14:00 +14°C° 0 mm 2 mps 722 mmHg 64%
    15:00 +13°C° 0 mm 2 mps 722 mmHg 66%
    16:00 +13°C° 0 mm 1 mps 722 mmHg 68%
    17:00 +12°C° 0 mm 1 mps 722 mmHg 69%
    18:00 +11°C° 0 mm 1 mps 722 mmHg 71%
    19:00 +11°C° 0 mm 1 mps 722 mmHg 73%
    20:00 +11°C° 0 mm 1 mps 722 mmHg 72%
    21:00 +11°C° 0 mm 1 mps 722 mmHg 71%
    22:00 +11°C° 0 mm 1 mps 722 mmHg 70%
    23:00 +10°C° 0 mm 2 mps 721 mmHg 72%

    Tomorrow, 22 October, Sunday

    Time Temperature Precipitation Wind Pressure Humidity
    00:00 +10°C° 0 mm 2 mps 721 mmHg 74%
    01:00 +10°C° 0 mm 2 mps 721 mmHg 76%
    02:00 +9°C° 0.4 mm 2 mps 721 mmHg 79%
    03:00 +9°C° 0.4 mm 2 mps 720 mmHg 82%
    04:00 +9°C° 0.4 mm 2 mps 720 mmHg 85%
    05:00 +9°C° 3.2 mm 3 mps 720 mmHg 87%
    06:00 +9°C° 3.2 mm 3 mps 720 mmHg 90%
    07:00 +9°C° 3.2 mm 3 mps 720 mmHg 93%
    08:00 +9°C° 0.6 mm 3 mps 720 mmHg 89%
    09:00 +10°C° 0.6 mm 3 mps 721 mmHg 86%
    10:00 +10°C° 0.6 mm 4 mps 721 mmHg 83%
    11:00 +11°C° 0.2 mm 4 mps 721 mmHg 80%
    12:00 +11°C° 0.2 mm 3 mps 721 mmHg 78%
    13:00 +11°C° 0.2 mm 3 mps 721 mmHg 75%
    14:00 +11°C° 0 mm 3 mps 720 mmHg 76%
    15:00 +12°C° 0 mm 2 mps 720 mmHg 76%
    16:00 +12°C° 0 mm 2 mps 720 mmHg 77%
    17:00 +10°C° 0.1 mm 2 mps 720 mmHg 79%
    18:00 +9°C° 0.1 mm 2 mps 720 mmHg 82%
    19:00 +9°C° 0.1 mm 1 mps 721 mmHg 85%
    20:00 +9°C° 0 mm 1 mps 721 mmHg 86%
    21:00 +8°C° 0 mm 1 mps 721 mmHg 87%
    22:00 +8°C° 0 mm 1 mps 720 mmHg 87%
    23:00 +7°C° 0 mm 1 mps 721 mmHg 87%

    Day after tomorrow, 23 October, Monday

    Time Temperature Precipitation Wind Pressure Humidity
    00:00 +7°C° 0 mm 1 mps 721 mmHg 87%
    01:00 +7°C° 0 mm 1 mps 721 mmHg 87%
    02:00 +7°C° 0 mm 1 mps 721 mmHg 88%
    03:00 +6°C° 0 mm 2 mps 721 mmHg 88%
    04:00 +5°C° 0 mm 2 mps 721 mmHg 88%
    05:00 +5°C° 0 mm 2 mps 721 mmHg 89%
    06:00 +5°C° 0 mm 2 mps 721 mmHg 89%
    07:00 +5°C° 0 mm 2 mps 721 mmHg 89%
    08:00 +6°C° 0 mm 2 mps 721 mmHg 84%
    09:00 +7°C° 0 mm 2 mps 721 mmHg 78%
    10:00 +9°C° 0 mm 2 mps 721 mmHg 73%
    11:00 +9°C° 0 mm 2 mps 721 mmHg 71%
    12:00 +9°C° 0 mm 2 mps 721 mmHg 69%
    13:00 +10°C° 0 mm 2 mps 721 mmHg 66%
    14:00 +10°C° 0 mm 2 mps 721 mmHg 69%
    15:00 +9°C° 0 mm 2 mps 721 mmHg 71%
    16:00 +9°C° 0 mm 2 mps 721 mmHg 74%
    17:00 +8°C° 0 mm 2 mps 722 mmHg 78%
    18:00 +7°C° 0 mm 2 mps 722 mmHg 83%
    19:00 +6°C° 0 mm 2 mps 723 mmHg 87%
    20:00 +6°C° 0 mm 2 mps 723 mmHg 88%
    21:00 +6°C° 0 mm 2 mps 723 mmHg 89%
    22:00 +5°C° 0 mm 2 mps 724 mmHg 90%
    23:00 +5°C° 0 mm 2 mps 724 mmHg 90%

    24 October, Tuesday

    Time Temperature Precipitation Wind Pressure Humidity
    00:00 +5°C° 0 mm 2 mps 724 mmHg 91%
    01:00 +5°C° 0 mm 2 mps 725 mmHg 92%
    02:00 +5°C° 0 mm 2 mps 725 mmHg 93%
    03:00 +5°C° 0 mm 2 mps 725 mmHg 94%
    04:00 +4°C° 0 mm 2 mps 725 mmHg 95%
    05:00 +5°C° 0 mm 2 mps 726 mmHg 95%
    06:00 +5°C° 0 mm 2 mps 726 mmHg 95%
    07:00 +5°C° 0 mm 2 mps 727 mmHg 95%
    08:00 +6°C° 0 mm 2 mps 727 mmHg 91%
    09:00 +7°C° 0 mm 3 mps 728 mmHg 88%
    10:00 +8°C° 0 mm 3 mps 728 mmHg 84%
    11:00 +8°C° 0 mm 3 mps 728 mmHg 82%
    12:00 +8°C° 0 mm 3 mps 729 mmHg 80%
    13:00 +9°C° 0 mm 3 mps 729 mmHg 78%
    14:00 +8°C° 0 mm 2 mps 729 mmHg 79%
    15:00 +8°C° 0 mm 2 mps 729 mmHg 81%
    16:00 +8°C° 0 mm 2 mps 729 mmHg 82%
    17:00 +8°C° 0 mm 1 mps 730 mmHg 85%
    18:00 +8°C° 0 mm 1 mps 730 mmHg 89%
    19:00 +7°C° 0 mm 1 mps 730 mmHg 92%
    20:00 +7°C° 0 mm 1 mps 730 mmHg 92%
    21:00 +6°C° 0 mm 1 mps 730 mmHg 92%
    22:00 +6°C° 0 mm 1 mps 730 mmHg 92%
    23:00 +6°C° 0 mm 1 mps 730 mmHg 92%

    25 October, Wednesday

    Time Temperature Precipitation Wind Pressure Humidity
    00:00 +5°C° 0 mm 1 mps 730 mmHg 92%
    01:00 +5°C° 0 mm 1 mps 730 mmHg 92%
    02:00 +5°C° 0 mm 1 mps 730 mmHg 92%
    03:00 +4°C° 0 mm 1 mps 730 mmHg 92%
    04:00 +4°C° 0 mm 1 mps 730 mmHg 92%
    05:00 +4°C° 0 mm 1 mps 731 mmHg 92%
    06:00 +4°C° 0 mm 1 mps 731 mmHg 91%
    07:00 +4°C° 0 mm 1 mps 731 mmHg 91%
    08:00 +6°C° 0 mm 1 mps 731 mmHg 84%
    09:00 +8°C° 0 mm 1 mps 731 mmHg 78%
    10:00 +8°C° 0 mm 2 mps 732 mmHg 71%
    11:00 +9°C° 0 mm 2 mps 731 mmHg 68%
    12:00 +10°C° 0 mm 2 mps 731 mmHg 64%
    13:00 +12°C° 0 mm 2 mps 731 mmHg 61%
    14:00 +10°C° 0 mm 2 mps 731 mmHg 63%
    15:00 +10°C° 0 mm 2 mps 730 mmHg 66%
    16:00 +9°C° 0 mm 2 mps 730 mmHg 69%
    17:00 +9°C° 0 mm 2 mps 730 mmHg 70%
    18:00 +8°C° 0 mm 2 mps 730 mmHg 71%
    19:00 +8°C° 0 mm 2 mps 731 mmHg 72%
    20:00 +8°C° 0 mm 2 mps 731 mmHg 73%
    21:00 +8°C° 0 mm 2 mps 731 mmHg 73%
    22:00 +8°C° 0 mm 2 mps 731 mmHg 74%
    23:00 +8°C° 0 mm 2 mps 730 mmHg 76%

    26 October, Thursday

    Time Temperature Precipitation Wind Pressure Humidity
    00:00 +8°C° 0 mm 2 mps 730 mmHg 77%
    01:00 +8°C° 0 mm 2 mps 730 mmHg 79%
    02:00 +8°C° 0 mm 2 mps 730 mmHg 80%
    03:00 +8°C° 0 mm 2 mps 730 mmHg 81%
    04:00 +8°C° 0 mm 2 mps 729 mmHg 82%
    05:00 +8°C° 0.1 mm 2 mps 730 mmHg 83%
    06:00 +8°C° 0.1 mm 2 mps 730 mmHg 84%
    07:00 +9°C° 0.1 mm 2 mps 730 mmHg 85%
    08:00 +9°C° 0 mm 2 mps 730 mmHg 84%
    09:00 +10°C° 0 mm 2 mps 730 mmHg 84%
    10:00 +10°C° 0 mm 2 mps 730 mmHg 84%
    11:00 +12°C° 0 mm 2 mps 730 mmHg 81%
    12:00 +13°C° 0 mm 3 mps 730 mmHg 78%
    13:00 +14°C° 0 mm 3 mps 730 mmHg 75%
    14:00 +13°C° 0 mm 3 mps 729 mmHg 78%
    15:00 +14°C° 0 mm 2 mps 729 mmHg 80%
    16:00 +13°C° 0 mm 2 mps 729 mmHg 83%
    17:00 +12°C° 0 mm 2 mps 728 mmHg 85%
    18:00 +12°C° 0 mm 2 mps 728 mmHg 88%
    19:00 +10°C° 0 mm 2 mps 728 mmHg 91%
    20:00 +10°C° 0 mm 2 mps 728 mmHg 91%
    21:00 +10°C° 0 mm 3 mps 727 mmHg 91%
    22:00 +10°C° 0 mm 3 mps 727 mmHg 90%
    23:00 +10°C° 0 mm 3 mps 726 mmHg 90%
    Show more